Time,TemperatureF,DewpointF,PressureIn,WindDirection,WindDirectionDegrees,WindSpeedMPH,WindSpeedGustMPH,Humidity,HourlyPrecipIn,Conditions,Clouds,dailyrainin,SoftwareType,DateUTC
2013-02-18 00:14:00,33.9,28.0,30.29,East,83,0.0,0.0,80,0.00,,,0.00,weatherlink.com 1.10,2013-02-18 06:14:00,
2013-02-18 00:29:00,34.1,29.0,30.29,East,83,0.0,0.0,81,0.00,,,0.00,weatherlink.com 1.10,2013-02-18 06:29:00,
2013-02-18 00:44:00,34.2,29.0,30.29,East,83,0.0,0.0,81,0.00,,,0.00,weatherlink.com 1.10,2013-02-18 06:44:00,
2013-02-18 00:59:00,34.4,29.0,30.28,East,83,0.0,1.0,81,0.00,,,0.00,weatherlink.com 1.10,2013-02-18 06:59:00,
2013-02-18 01:14:00,34.5,29.0,30.28,East,83,0.0,1.0,81,0.00,,,0.00,weatherlink.com 1.10,2013-02-18 07:14:00,
2013-02-18 01:29:00,34.5,29.0,30.28,East,83,0.0,0.0,81,0.00,,,0.00,weatherlink.com 1.10,2013-02-18 07:29:00,
2013-02-18 01:44:00,34.0,29.0,30.27,East,83,0.0,0.0,83,0.00,,,0.00,weatherlink.com 1.10,2013-02-18 07:44:00,
2013-02-18 01:59:00,33.8,30.0,30.27,East,83,0.0,0.0,85,0.00,,,0.00,weatherlink.com 1.10,2013-02-18 07:59:00,
2013-02-18 02:14:00,33.6,30.0,30.26,East,83,0.0,0.0,86,0.00,,,0.00,weatherlink.com 1.10,2013-02-18 08:14:00,
2013-02-18 02:29:00,32.7,30.0,30.26,East,83,0.0,0.0,88,0.00,,,0.00,weatherlink.com 1.10,2013-02-18 08:29:00,
2013-02-18 02:45:00,32.5,30.0,30.26,East,83,0.0,0.0,90,0.00,,,0.00,weatherlink.com 1.10,2013-02-18 08:45:00,
2013-02-18 03:00:00,32.3,30.0,30.26,East,83,0.0,0.0,90,0.00,,,0.00,weatherlink.com 1.10,2013-02-18 09:00:00,
2013-02-18 03:15:00,31.9,30.0,30.26,East,83,0.0,0.0,91,0.00,,,0.00,weatherlink.com 1.10,2013-02-18 09:15:00,
2013-02-18 03:30:00,32.2,30.0,30.26,East,83,0.0,1.0,90,0.00,,,0.00,weatherlink.com 1.10,2013-02-18 09:30:00,
2013-02-18 03:45:00,33.3,30.0,30.25,East,82,1.0,1.0,87,0.00,,,0.00,weatherlink.com 1.10,2013-02-18 09:45:00,
2013-02-18 04:00:00,33.2,30.0,30.26,East,82,0.0,1.0,87,0.00,,,0.00,weatherlink.com 1.10,2013-02-18 10:00:00,
2013-02-18 04:15:00,33.8,30.0,30.26,ENE,77,1.0,1.0,86,0.00,,,0.00,weatherlink.com 1.10,2013-02-18 10:15:00,
2013-02-18 04:30:00,34.4,30.0,30.26,ENE,76,1.0,1.0,84,0.00,,,0.00,weatherlink.com 1.10,2013-02-18 10:30:00,
2013-02-18 04:45:00,34.5,30.0,30.27,East,86,2.0,2.0,84,0.00,,,0.00,weatherlink.com 1.10,2013-02-18 10:45:00,
2013-02-18 05:00:00,34.7,30.0,30.27,East,82,1.0,3.0,82,0.00,,,0.00,weatherlink.com 1.10,2013-02-18 11:00:00,
2013-02-18 05:15:00,34.8,30.0,30.27,East,83,1.0,1.0,82,0.00,,,0.00,weatherlink.com 1.10,2013-02-18 11:15:00,
2013-02-18 05:45:00,34.9,30.0,30.28,East,88,1.0,2.0,82,0.00,,,0.00,weatherlink.com 1.10,2013-02-18 11:45:00,
2013-02-18 06:00:00,35.4,30.0,30.28,East,79,1.0,3.0,81,0.00,,,0.00,weatherlink.com 1.10,2013-02-18 12:00:00,
2013-02-18 06:15:00,35.6,30.0,30.28,ENE,75,2.0,3.0,81,0.00,,,0.00,weatherlink.com 1.10,2013-02-18 12:15:00,
2013-02-18 06:30:00,35.8,31.0,30.28,East,84,1.0,2.0,81,0.00,,,0.00,weatherlink.com 1.10,2013-02-18 12:30:00,
2013-02-18 06:46:00,36.3,31.0,30.28,ENE,76,2.0,2.0,80,0.00,,,0.00,weatherlink.com 1.10,2013-02-18 12:46:00,
2013-02-18 07:00:00,37.7,31.0,30.29,East,84,3.0,4.0,77,0.00,,,0.00,weatherlink.com 1.10,2013-02-18 13:00:00,
2013-02-18 07:15:00,39.5,32.0,30.29,East,81,4.0,4.0,75,0.00,,,0.00,weatherlink.com 1.10,2013-02-18 13:15:00,
2013-02-18 07:45:00,43.0,34.0,30.30,East,90,4.0,5.0,70,0.00,,,0.00,weatherlink.com 1.10,2013-02-18 13:45:00,
2013-02-18 08:00:00,44.1,33.0,30.30,ESE,114,5.0,8.0,66,0.00,,,0.00,weatherlink.com 1.10,2013-02-18 14:00:00,
2013-02-18 08:15:00,45.1,35.0,30.30,ENE,60,2.0,5.0,67,0.00,,,0.00,weatherlink.com 1.10,2013-02-18 14:15:00,
2013-02-18 08:30:00,47.1,35.0,30.31,East,86,4.0,7.0,63,0.00,,,0.00,weatherlink.com 1.10,2013-02-18 14:30:00,
2013-02-18 08:45:00,49.6,37.0,30.31,NE,56,5.0,7.0,62,0.00,,,0.00,weatherlink.com 1.10,2013-02-18 14:45:00,
2013-02-18 09:00:00,51.2,38.0,30.31,SE,126,4.0,6.0,60,0.00,,,0.00,weatherlink.com 1.10,2013-02-18 15:00:00,
2013-02-18 09:15:00,53.2,39.0,30.31,ESE,111,4.0,9.0,58,0.00,,,0.00,weatherlink.com 1.10,2013-02-18 15:15:00,
2013-02-18 09:31:00,54.4,39.0,30.31,ESE,108,5.0,8.0,56,0.00,,,0.00,weatherlink.com 1.10,2013-02-18 15:31:00,
2013-02-18 09:46:00,55.2,40.0,30.31,ESE,117,2.0,9.0,56,0.00,,,0.00,weatherlink.com 1.10,2013-02-18 15:46:00,
2013-02-18 10:01:00,56.3,39.0,30.31,ESE,114,5.0,9.0,53,0.00,,,0.00,weatherlink.com 1.10,2013-02-18 16:01:00,
2013-02-18 10:16:00,57.5,39.0,30.30,ENE,63,6.0,12.0,50,0.00,,,0.00,weatherlink.com 1.10,2013-02-18 16:16:00,
2013-02-18 10:31:00,57.8,39.0,30.30,NE,53,9.0,10.0,50,0.00,,,0.00,weatherlink.com 1.10,2013-02-18 16:31:00,
2013-02-18 10:46:00,58.2,39.0,30.29,East,95,6.0,13.0,49,0.00,,,0.00,weatherlink.com 1.10,2013-02-18 16:46:00,
2013-02-18 11:01:00,59.7,39.0,30.29,NNE,29,3.0,9.0,46,0.00,,,0.00,weatherlink.com 1.10,2013-02-18 17:01:00,
2013-02-18 11:16:00,61.1,38.0,30.28,ENE,76,2.0,10.0,42,0.00,,,0.00,weatherlink.com 1.10,2013-02-18 17:16:00,
2013-02-18 11:31:00,61.1,39.0,30.27,ESE,119,4.0,11.0,44,0.00,,,0.00,weatherlink.com 1.10,2013-02-18 17:31:00,
2013-02-18 11:46:00,61.3,37.0,30.26,ESE,102,7.0,13.0,40,0.00,,,0.00,weatherlink.com 1.10,2013-02-18 17:46:00,
2013-02-18 12:01:00,61.4,37.0,30.26,SE,125,2.0,13.0,40,0.00,,,0.00,weatherlink.com 1.10,2013-02-18 18:01:00,
2013-02-18 12:16:00,62.6,38.0,30.25,South,175,3.0,11.0,40,0.00,,,0.00,weatherlink.com 1.10,2013-02-18 18:16:00,
2013-02-18 12:31:00,62.4,38.0,30.24,East,96,6.0,13.0,40,0.00,,,0.00,weatherlink.com 1.10,2013-02-18 18:31:00,
2013-02-18 12:46:00,63.6,37.0,30.23,SSW,195,2.0,6.0,38,0.00,,,0.00,weatherlink.com 1.10,2013-02-18 18:46:00,
2013-02-18 13:01:00,64.4,37.0,30.23,ESE,105,4.0,7.0,37,0.00,,,0.00,weatherlink.com 1.10,2013-02-18 19:01:00,
2013-02-18 13:16:00,63.3,37.0,30.22,East,86,8.0,14.0,38,0.00,,,0.00,weatherlink.com 1.10,2013-02-18 19:16:00,
2013-02-18 13:31:00,62.9,39.0,30.21,ESE,119,10.0,12.0,42,0.00,,,0.00,weatherlink.com 1.10,2013-02-18 19:31:00,
2013-02-18 14:01:00,64.1,38.0,30.21,East,96,3.0,15.0,39,0.00,,,0.00,weatherlink.com 1.10,2013-02-18 20:01:00,
2013-02-18 14:16:00,63.7,37.0,30.20,SE,140,2.0,13.0,38,0.00,,,0.00,weatherlink.com 1.10,2013-02-18 20:16:00,
2013-02-18 14:31:00,63.7,37.0,30.20,SE,133,6.0,18.0,38,0.00,,,0.00,weatherlink.com 1.10,2013-02-18 20:31:00,
2013-02-18 14:46:00,63.0,38.0,30.19,East,96,11.0,14.0,40,0.00,,,0.00,weatherlink.com 1.10,2013-02-18 20:46:00,
2013-02-18 15:01:00,62.3,39.0,30.18,SE,143,2.0,14.0,42,0.00,,,0.00,weatherlink.com 1.10,2013-02-18 21:01:00,
2013-02-18 15:16:00,61.3,40.0,30.18,East,96,6.0,14.0,45,0.00,,,0.00,weatherlink.com 1.10,2013-02-18 21:16:00,
2013-02-18 15:31:00,59.9,40.0,30.18,ESE,120,3.0,9.0,48,0.00,,,0.00,weatherlink.com 1.10,2013-02-18 21:31:00,
2013-02-18 15:46:00,59.2,40.0,30.17,East,84,3.0,10.0,49,0.00,,,0.00,weatherlink.com 1.10,2013-02-18 21:46:00,
2013-02-18 16:01:00,58.3,40.0,30.16,ENE,74,11.0,13.0,51,0.00,,,0.00,weatherlink.com 1.10,2013-02-18 22:01:00,
2013-02-18 16:17:00,57.8,40.0,30.16,East,94,6.0,10.0,52,0.00,,,0.00,weatherlink.com 1.10,2013-02-18 22:17:00,
2013-02-18 16:31:00,57.3,40.0,30.16,East,82,6.0,11.0,52,0.00,,,0.00,weatherlink.com 1.10,2013-02-18 22:31:00,
2013-02-18 16:47:00,56.8,39.0,30.16,ENE,71,6.0,11.0,51,0.00,,,0.00,weatherlink.com 1.10,2013-02-18 22:47:00,
2013-02-18 17:02:00,56.3,38.0,30.15,East,83,5.0,10.0,51,0.00,,,0.00,weatherlink.com 1.10,2013-02-18 23:02:00,
2013-02-18 17:17:00,55.7,38.0,30.15,East,86,2.0,12.0,52,0.00,,,0.00,weatherlink.com 1.10,2013-02-18 23:17:00,
2013-02-18 17:32:00,55.2,38.0,30.14,East,91,5.0,12.0,53,0.00,,,0.00,weatherlink.com 1.10,2013-02-18 23:32:00,
2013-02-18 17:47:00,54.8,38.0,30.14,ESE,121,4.0,14.0,53,0.00,,,0.00,weatherlink.com 1.10,2013-02-18 23:47:00,
2013-02-18 18:02:00,54.5,38.0,30.14,ESE,110,9.0,10.0,54,0.00,,,0.00,weatherlink.com 1.10,2013-02-19 00:02:00,
2013-02-18 18:17:00,54.3,38.0,30.14,East,93,3.0,10.0,54,0.00,,,0.00,weatherlink.com 1.10,2013-02-19 00:17:00,
2013-02-18 18:32:00,53.9,39.0,30.15,East,96,0.0,7.0,57,0.00,,,0.00,weatherlink.com 1.10,2013-02-19 00:32:00,
2013-02-18 18:47:00,53.4,39.0,30.16,South,170,1.0,6.0,59,0.00,,,0.00,weatherlink.com 1.10,2013-02-19 00:47:00,
2013-02-18 19:02:00,53.3,40.0,30.15,East,87,2.0,7.0,62,0.00,,,0.00,weatherlink.com 1.10,2013-02-19 01:02:00,
2013-02-18 19:17:00,53.1,41.0,30.16,ESE,111,3.0,9.0,64,0.00,,,0.00,weatherlink.com 1.10,2013-02-19 01:17:00,
2013-02-18 19:32:00,53.0,41.0,30.15,ENE,62,5.0,11.0,65,0.00,,,0.00,weatherlink.com 1.10,2013-02-19 01:32:00,
2013-02-18 19:47:00,52.6,41.0,30.15,NE,56,5.0,8.0,66,0.00,,,0.00,weatherlink.com 1.10,2013-02-19 01:47:00,
2013-02-18 20:02:00,52.4,41.0,30.14,East,94,3.0,13.0,66,0.00,,,0.00,weatherlink.com 1.10,2013-02-19 02:02:00,
2013-02-18 20:17:00,52.2,41.0,30.14,SE,130,7.0,15.0,66,0.00,,,0.00,weatherlink.com 1.10,2013-02-19 02:17:00,
2013-02-18 20:32:00,51.8,41.0,30.13,ESE,104,9.0,16.0,67,0.00,,,0.00,weatherlink.com 1.10,2013-02-19 02:32:00,
2013-02-18 20:47:00,51.6,41.0,30.13,East,101,3.0,18.0,67,0.00,,,0.00,weatherlink.com 1.10,2013-02-19 02:47:00,
2013-02-18 21:02:00,51.3,41.0,30.13,East,101,6.0,11.0,68,0.00,,,0.00,weatherlink.com 1.10,2013-02-19 03:02:00,
2013-02-18 21:17:00,51.2,41.0,30.13,NNE,23,3.0,14.0,68,0.00,,,0.00,weatherlink.com 1.10,2013-02-19 03:17:00,
2013-02-18 21:32:00,51.1,41.0,30.13,East,89,4.0,9.0,69,0.00,,,0.00,weatherlink.com 1.10,2013-02-19 03:32:00,
2013-02-18 21:47:00,50.9,41.0,30.11,East,83,6.0,9.0,70,0.00,,,0.00,weatherlink.com 1.10,2013-02-19 03:47:00,
2013-02-18 22:02:00,50.7,41.0,30.12,ENE,69,6.0,10.0,70,0.00,,,0.00,weatherlink.com 1.10,2013-02-19 04:02:00,
2013-02-18 22:17:00,50.4,41.0,30.10,East,90,4.0,7.0,71,0.00,,,0.00,weatherlink.com 1.10,2013-02-19 04:17:00,
2013-02-18 22:32:00,50.3,41.0,30.09,East,92,3.0,10.0,71,0.00,,,0.00,weatherlink.com 1.10,2013-02-19 04:32:00,
2013-02-18 22:47:00,50.0,41.0,30.09,ESE,120,4.0,11.0,72,0.00,,,0.00,weatherlink.com 1.10,2013-02-19 04:47:00,
2013-02-18 23:02:00,50.0,41.0,30.07,East,86,5.0,10.0,72,0.00,,,0.00,weatherlink.com 1.10,2013-02-19 05:02:00,
2013-02-18 23:17:00,49.7,41.0,30.07,ESE,102,8.0,9.0,73,0.00,,,0.00,weatherlink.com 1.10,2013-02-19 05:17:00,
2013-02-18 23:32:00,49.7,42.0,30.06,ENE,63,5.0,13.0,74,0.00,,,0.00,weatherlink.com 1.10,2013-02-19 05:32:00,
2013-02-18 23:47:00,49.3,42.0,30.05,East,97,8.0,8.0,75,0.00,,,0.00,weatherlink.com 1.10,2013-02-19 05:47:00,